Location: Bieberm�hle
(49.2619°N, 7.6059°E)
Time: 13:32:25
(UTC+00:00)

Daily predictions for brighter satellites

Satellite Brightness Start Highest point End
(mag) Time Altitude Azimuth Time Altitude Azimuth Time Altitude Azimuth
Landsat 5 4.1 16:04:18 10° NNE 16:08:29 42° E 16:12:43 10° S
Cosmos 1980 4.4 16:04:49 10° S 16:09:55 35° ESE 16:15:02 10° NE
USA 215 4.5 16:04:53 10° ENE 16:10:08 25° SE 16:15:22 10° S
Cosmos 1869 3.4 16:06:31 10° S 16:10:34 88° ESE 16:14:42 10° N
YAOGAN 6 2.9 16:08:10 10° SE 16:11:40 46° ENE 16:15:10 10° N
Cosmos 405 3.0 16:09:45 10° S 16:13:12 64° E 16:16:40 10° NNE
Aureole 2 Rocket 3.6 16:11:08 10° NW 16:13:44 38° WSW 16:16:26 10° S
Cosmos 389 Rocket 4.2 16:12:51 10° ESE 16:14:42 14° E 16:16:33 10° NE
Cosmos 1939 Rocket 4.4 16:13:05 10° E 16:15:23 15° ENE 16:17:43 10° NNE
Cosmos 1607 4.5 16:10:23 10° SW 16:16:39 60° NW 16:23:03 10° NE
H-2A R/B 2.8 16:13:56 10° SSE 16:17:45 84° WSW 16:21:40 10° NNW
H-2A R/B 2.5 16:16:32 10° NNE 16:20:30 41° E 16:24:30 10° S
Cosmos 2298 Rocket 4.1 16:17:58 10° NNW 16:23:19 87° ENE 16:28:38 10° SSE
NOAA 6 4.0 16:18:11 10° SSE 16:23:21 84° ENE 16:28:32 10° NNW
Cosmos 2150 Rocket 3.9 16:19:06 10° NNW 16:24:18 83° ENE 16:29:27 10° SSE
ISS -2.8 16:21:48 10° SW 16:24:56 37° SSE 16:27:59 11° E
Cosmos 1943 Rocket 3.3 16:22:36 10° N 16:26:57 23° NE 16:31:19 10° E
Cosmos 405 Rocket 2.7 16:23:47 10° N 16:27:42 79° ENE 16:31:40 10° SSE
Cosmos 1818 3.6 16:22:18 10° NW 16:27:48 89° SW 16:33:16 10° SE
Cosmos 2297 4.3 16:24:31 10° NNW 16:29:41 34° NE 16:34:51 10° ESE
Cosmos 1633 Rocket 4.2 16:26:41 10° NNE 16:30:06 22° ENE 16:33:29 10° ESE
Cosmos 2327 Rocket 4.4 16:24:23 10° N 16:30:33 72° E 16:36:45 10° SSE
Cosmos 2074 Rocket 4.2 16:25:14 10° NNW 16:31:29 78° W 16:37:43 10° S
CZ-2C R/B 4.3 16:28:43 10° E 16:31:58 18° ENE 16:35:08 10° NNE
Meteor 2-2 Rocket 4.4 16:29:48 10° S 16:35:46 86° E 16:41:40 10° NNE
CZ-4B R/B 2.7 16:34:25 13° NE 16:36:10 19° E 16:38:25 10° SE
Cosmos 1125 Rocket 3.4 16:30:57 10° NNW 16:36:11 75° ENE 16:41:23 10° SSE
Cosmos 1356 4.1 16:33:12 10° N 16:36:18 30° ENE 16:39:22 10° SE
Cosmos 2322 Rocket 4.2 16:33:14 10° W 16:37:27 21° NW 16:41:40 10° N
SL-16 R/B 3.4 16:36:08 10° SSE 16:40:20 22° E 16:43:43 13° ENE
CREW DRAGON DEMO-1 DEB 2.7 16:37:44 10° WNW 16:40:44 76° NNE 16:43:19 13° ESE
Cosmos 2221 2.9 16:36:49 10° SSW 16:41:09 69° WNW 16:45:28 10° N
SMAP 3.0 16:37:17 10° SSE 16:41:55 76° ENE 16:46:36 10° N
Cosmos 2208 Rocket 4.4 16:38:46 10° SSW 16:44:01 66° WNW 16:49:22 10° NNE
Cosmos 540 Rocket 4.4 16:39:38 10° SW 16:44:35 47° WNW 16:49:33 10° NNE
USA 267 3.4 16:38:31 10° E 16:44:55 61° NNE 16:51:21 10° WNW
Cosmos 1933 4.4 16:46:04 10° SE 16:49:21 24° E 16:51:58 14° NE
Cosmos 1500 Rocket 4.2 16:45:03 10° NNW 16:49:23 60° W 16:53:43 10° S
Cosmos 1606 3.2 16:46:13 10° SSE 16:49:51 40° E 16:53:32 10° NNE
Cosmos 1295 Rocket 4.4 16:45:04 10° N 16:51:15 81° E 16:57:28 10° SSE
Cosmos 2333 Rocket 3.3 16:52:11 10° WSW 16:57:36 43° NW 17:03:00 10° NNE
H-2A R/B 3.8 16:55:22 10° S 16:59:32 45° W 17:03:35 10° NNW
IRS-1C Rocket 4.4 16:55:41 10° SE 17:00:39 44° ENE 17:05:39 10° N
COSMOS 2428 3.6 16:57:44 10° SW 17:03:18 48° NW 17:08:52 10° NNE
YAOGAN 1 3.6 17:01:43 18° E 17:03:26 23° ENE 17:06:52 10° N
Meteor 1-20 Rocket 4.4 16:58:59 10° N 17:04:43 52° ENE 17:10:24 10° SSE
Cosmos 2278 Rocket 3.3 17:00:12 10° NW 17:05:39 48° WSW 17:11:04 10° S
Envisat 4.3 17:00:55 10° S 17:05:45 44° W 17:10:38 10° NNW
Cosmos 1470 Rocket 4.4 17:02:51 10° N 17:06:36 27° ENE 17:10:18 10° SE
ERS-2 2.3 17:08:37 18° NNE 17:11:03 47° E 17:14:36 10° S
USA 281 3.3 17:06:42 10° SE 17:13:01 53° NE 17:19:22 10° NNW
COSMO-SKYMED 1 3.1 17:10:27 18° NE 17:13:18 37° E 17:17:20 10° SSE
Helios 1A Rocket 3.6 17:11:26 18° ESE 17:13:43 31° ENE 17:17:16 10° N
USA 81 4.1 17:08:50 10° N 17:14:02 54° E 17:19:11 10° SSE
Feng Yun 1-1 Rocket 4.2 17:08:18 10° SSE 17:14:04 70° ENE 17:19:42 10° NNW
TELKOM 3 3.6 17:11:40 10° SW 17:14:15 41° SSE 17:14:32 39° SE
Cosmos 482 Debris 3.8 17:13:54 10° WNW 17:15:06 33° NW 17:15:06 33° NW
Cosmos 2360 Rocket 4.3 17:13:49 10° W 17:17:43 19° NW 17:21:37 10° N
Sich 1 3.2 17:14:08 10° NNW 17:18:34 76° W 17:22:54 10° S
Okean-O 3.0 17:16:56 10° SE 17:21:02 39° ENE 17:25:10 10° N
Lacrosse 5 rocket 2.5 17:20:13 10° S 17:22:55 22° SE 17:22:55 22° SE
H-2A R/B 2.7 17:21:16 21° ESE 17:23:54 32° ENE 17:28:27 10° N
Cosmos 1602 4.2 17:20:26 10° N 17:24:07 37° ENE 17:24:18 37° E
Cosmos 2219 Rocket 3.7 17:19:37 10° WSW 17:24:39 32° NW 17:29:42 10° NNE
Cosmos 2218 Rocket 3.9 17:18:42 10° N 17:24:51 64° ENE 17:30:56 10° SSE
CZ-2D R/B 3.3 17:21:39 10° SSE 17:25:21 52° ENE 17:29:07 10° N
Meteor 1-25 Rocket 4.1 17:20:28 10° N 17:26:05 71° ENE 17:31:44 10° SSE
Cosmos 44 3.4 17:21:48 10° NW 17:27:04 73° NE 17:31:48 14° SE
Okean O Rocket 3.0 17:26:27 10° S 17:30:32 41° W 17:34:42 10° NNW
CZ-4B R/B 4.4 17:25:39 10° S 17:30:42 43° W 17:35:45 10° NNW
Cosmos 2366 rocket 3.9 17:28:15 10° N 17:34:29 72° E 17:40:37 10° SSE
Cosmos 1151 Rocket 2.9 17:30:35 10° S 17:34:47 59° E 17:36:52 28° NNE
Cosmos 2237 Rocket 2.6 17:29:43 10° SW 17:35:17 64° WNW 17:40:11 14° NNE
Cosmos 1933 Rocket 4.4 17:33:07 10° N 17:36:05 31° NE 17:36:05 31° NE
SKYMED 3 4.5 17:34:47 23° NNE 17:37:26 65° E 17:41:45 10° S
BREEZE-M DEB (TANK) 3.2 17:36:09 10° SW 17:37:37 28° SSW 17:37:37 28° SSW
Cosmos 1666 Rocket 3.7 17:34:01 10° NNW 17:38:25 74° W 17:42:50 10° S
CZ-4 R/B 1.3 17:38:53 47° ESE 17:39:31 53° ENE 17:43:27 10° N
Cosmos 1328 Rocket 3.4 17:39:36 10° S 17:43:52 65° E 17:45:21 38° NNE
CSL-04 Rocket 3.9 17:44:43 39° E 17:45:37 42° ENE 17:50:38 10° N
Cosmos 2369 Rocket 2.4 17:41:12 10° NNW 17:46:43 46° NE 17:47:50 41° E
Cosmos 389 Rocket 3.7 17:45:46 10° SW 17:49:02 41° WNW 17:51:14 18° N
Cosmos 1939 Rocket 3.3 17:46:05 10° S 17:49:53 58° W 17:53:46 10° NNW
USA 215 3.2 17:50:49 35° ENE 17:53:52 76° SE 18:00:24 10° SW
H-2A R/B 4.2 17:52:57 10° N 17:56:17 24° WNW 17:59:39 10° WSW
SKYMED 2 3.7 17:59:06 26° N 18:01:30 74° WNW 18:05:49 10° SSW
ISS -2.9 17:58:17 10° W 18:00:57 50° WNW 18:00:57 50° WNW
Cosmos 1867 3.6 18:00:27 10° SW 18:05:54 80° NW 18:07:37 45° NNE
Cosmos 1633 Rocket 4.2 18:03:56 10° NNW 18:08:07 44° W 18:12:15 10° SSW
CZ-4B R/B 3.3 18:07:35 22° NW 18:08:25 25° WNW 18:11:02 10° SW
CZ-2C R/B 3.0 18:06:13 10° S 18:11:20 79° WSW 18:16:15 10° NNW
Cosmos 1943 Rocket 2.1 18:05:50 10° NNW 18:11:24 83° WSW 18:14:17 30° SSE
ARGOS 3.4 18:19:45 53° NNE 18:19:45 53° NNE 18:24:04 10° N
SL-16 R/B 2.4 18:18:15 10° SW 18:23:53 70° WNW 18:25:38 45° N
Nadezhda 3 Rocket 4.2 18:17:49 10° S 18:22:55 53° SE 18:22:55 53° SE
Meteor 1-14 Rocket 4.5 18:20:27 10° NNW 18:26:22 73° W 18:32:20 10° S
USA 267 3.5 18:25:00 34° SSE 18:27:57 64° SW 18:34:28 10° WNW
Cosmos 1821 Rocket 3.9 18:30:18 10° N 18:36:33 89° E 18:38:27 48° S
Cosmos 2263 4.5 18:31:31 10° NNW 18:35:57 55° N 18:35:57 55° N
YAOGAN 1 3.6 18:38:54 43° WSW 18:39:18 44° W 18:43:28 10° NNW
MOS 1 Rocket 4.2 18:53:20 55° NW 18:53:48 57° WNW 18:59:07 10° SSW
USA 281 4.4 18:51:39 10° S 18:57:41 38° WSW 19:03:46 10° NW
Lacrosse 5 rocket 4.2 18:58:16 10° WSW 18:58:34 12° WSW 18:58:34 12° WSW
H-2A R/B 3.1 19:01:53 36° SW 19:03:12 43° W 19:08:10 10° NNW
CZ-4 R/B 4.2 19:14:54 16° W 19:14:54 16° W 19:17:22 10° NW
Cosmos 2237 Rocket 4.4 19:16:56 10° WNW 19:20:32 17° NW 19:22:01 16° NNW
Cosmos 2369 Rocket 3.7 19:25:30 10° NW 19:29:41 33° W 19:29:41 33° W
USA 215 4.0 19:38:10 47° WNW 19:38:10 47° WNW 19:43:06 10° W
